Volver al catálogo

COSMOS 394

ActivoMilitarVLEO
NORAD 4922·PAYLOAD·🇷🇺 Russia

Lanzado Feb 9, 1971 desde Plesetsk Cosmodrome

Loading…

Próximos Pases

TLE

Source: Space-Track
1  4922U 71010A   26225.15561458  .00002508  00000-0  50569-4 0  9992
2  4922  65.8181  88.1191 0009399 226.2689 133.7684 15.49108098 66842

Sigue COSMOS 394 en tiempo real con AllMySat

Download on the App Store